Regional Weather Roundup
Issued by NWS

Home | Current Version | Previous Version | Graphics & Text | Print | Product List | Glossary On
Versions: 1 2 3 4 5 6 7 8 9 10 11 12 13 14 15 16 17 18 19 20 21 22 23 24 25 26 27 28 29 30 31 32 33 34 35 36 37 38 39 40 41 42 43 44 45 46 47 48 49 50
000
ASUS43 KIND 232309
RWRIN

WEATHER ROUNDUP FOR INDIANA
NATIONAL WEATHER SERVICE INDIANAPOLIS IN
700 PM EDT SAT SEP 23 2017

NOTE: "FAIR" INDICATES FEW OR NO CLOUDS BELOW 12,000 FEET WITH NO
SIGNIFICANT WEATHER AND/OR OBSTRUCTIONS TO VISIBILITY.

* - STATION DOES NOT REPORT WEATHER SUCH AS PRECIPITATION OR FOG.

+ - STATION NOT QUALITY CONTROLLED BY THE NATIONAL WEATHER SERVICE.
    USE DATA WITH CAUTION...ESPECIALLY DEWPOINT AND RELATIVE
    HUMIDITY OBSERVATIONS.

INZ001>003-010>013-019-020-240000-
NORTHWEST INDIANA

CITY           SKY/WX    TMP DP  RH WIND       PRES   REMARKS
GARY /AIRPORT/ CLEAR     84  66  54 E7        30.05S
KNOX *+        CLEAR     88  64  45 SE3       30.05S
LA PORTE +     CLEAR     89  65  45 SE3       30.07S
MICHIGAN CITY+ CLEAR     82  68  61 N3        30.06S
MONTICELLO +   CLEAR     87  61  41 E6        30.05S
RENSSELAER +   CLEAR     88  48  25 SE6       30.05S
VALPARAISO     CLEAR     88  66  48 E8        30.06R

$$

LMZ046-743>745-240000-
SOUTHERN LAKE MICHIGAN

STATION/POSITION TIME  TEMP    WIND        PRES    WAVE
                       AIR SEA DIR/SP/G            HT
                 (UTC) (F)     (DEG/KT/KT) (MB)    (FT)
BURNS HARBOR     2302   76      60/  9/ 11 1017.9
MICHIGAN CITY    2240   77      50/ 13/ 14   N/A
5NW MICH CITY    2300   75 74   80/  8/  8   N/A     1

$$

INZ004-005-014>016-021>024-240000-
NORTH CENTRAL INDIANA

CITY           SKY/WX    TMP DP  RH WIND       PRES   REMARKS
GOSHEN         CLEAR     87  62  43 SE7       30.08S
LOGANSPORT +   CLEAR     86  64  48 NE3       30.07S
PERU/GRISSOM   CLEAR     87  65  48 E5        30.06S
SOUTH BEND     CLEAR     88  62  41 SE10      30.07S
WARSAW +       CLEAR     82  64  54 E7        30.08F

$$

INZ006>009-017-018-025>027-240000-
NORTHEAST INDIANA

CITY           SKY/WX    TMP DP  RH WIND       PRES   REMARKS
AUBURN +       CLEAR     82  63  51 CALM      30.10S
FORT WAYNE     CLEAR     84  65  52 E8        30.09R
HUNTINGTON +   CLEAR     86  63  45 CALM      30.07F
KENDALLVILLE + CLEAR     83  65  54 SE3       30.10S

$$

INZ028-029-035-036-043>045-051>053-240000-
WEST CENTRAL INDIANA

CITY           SKY/WX    TMP DP  RH WIND       PRES   REMARKS
CRAWFORDSVL +  CLEAR     86  61  42 E7        30.05S
GREENCASTLE +  CLEAR     86  61  42 SE3       30.06S
LAFAYETTE      CLEAR     85  67  54 E8        30.03S
TERRE HAUTE    CLEAR     88  60  38 E7        30.04R

$$

INZ030>032-037>040-046>048-054>057-064-065-240000-
CENTRAL INDIANA

CITY           SKY/WX    TMP DP  RH WIND       PRES   REMARKS
CP ATTERBURY + CLEAR     82  61  47 SE5       30.06S
COLUMBUS       CLEAR     86  54  32 E6        30.06S
FISHERS *+     CLEAR     84  68  58 CALM      30.06
FRANKFORT +    PTCLDY    89  65  45 SE5       30.08S
GREENWOOD *+   CLEAR     91  66  44 E7        30.06S
INDIANAPOLIS   PTCLDY    87  63  44 E8        30.05S
-EAGLE CREEK   MOCLDY    89  62  40 E9        30.05S
KOKOMO +       CLEAR     85  67  54 E5        30.08S
MT COMFORT *+  CLEAR     88  61  40 E6        30.07S
SHELBYVILLE    CLEAR     87  61  41 SE6       30.06R
ZIONSVILLE +     N/A     83  65  53 E3        30.08S

$$

INZ033-034-041-042-049-050-058-059-240000-
EAST CENTRAL INDIANA

CITY           SKY/WX    TMP DP  RH WIND       PRES   REMARKS
MUNCIE         CLEAR     87  60  40 E7        30.07S
RICHMOND +     CLEAR     82  63  51 SE3       30.10S

$$

INZ060-061-067>069-081>083-085>088-240000-
SOUTHWEST INDIANA

CITY           SKY/WX    TMP DP  RH WIND       PRES   REMARKS
EVANSVILLE     CLEAR     84  61  45 E7        30.03R
HUNTINGBURG +  CLEAR     83  66  56 SE7       30.04S
WASHINGTON +   CLEAR     87  60  41 SE9       30.03S

$$

INZ062-063-066-070>080-084-089>092-240000-
SOUTH CENTRAL AND SOUTHEAST INDIANA

CITY           SKY/WX    TMP DP  RH WIND       PRES   REMARKS
BEDFORD +      CLEAR     84  59  42 SE5       30.05S
BLOOMINGTON    CLEAR     87  59  38 SE6       30.05S
MADISON *+     CLEAR     82  63  51 CALM      30.08F
NORTH VERNON + CLEAR     82  70  65 CALM      30.08R
SEYMOUR +      CLEAR     88  63  42 E5        30.06R

$$





USA.gov is the U.S. government's official web portal to all federal, state and local government web resources and services.